Wind_Speed
34 34 33 33 29 27 29 28 26 25 22 22 22 21 22 20 17 17 17 15 15 14 14 14 14 14 14 15 14 14 14 13 13 12 13 13 13 13 12 12 12 11 10 9 8 8 7 7 7 7 6 6 6 6 6 6 6 6 5 5 5 5 5
36 35 35 33 30 27 28 28 26 26 24 25 24 22 23 21 17 17 16 16 15 14 14 14 14 14 14 15 14 14 14 13 12 12 12 13 13 13 12 13 12 11 10 9 8 8 8 7 7 7 7 7 7 7 7 6 6 6 6 6 6 5 5
37 36 35 33 30 28 29 28 26 26 26 28 27 25 24 20 17 16 16 17 16 15 15 15 15 15 15 15 15 15 15 14 13 12 12 12 12 12 12 12 12 11 10 10 8 8 8 7 7 8 8 7 7 7 7 7 7 7 6 6 5 5 5
37 37 34 32 31 31 30 28 27 26 26 27 27 26 25 21 19 17 16 17 17 15 15 15 15 15 15 15 15 15 15 15 14 13 13 13 12 13 12 11 11 11 10 9 9 8 8 8 8 8 9 8 8 8 8 8 7 7 7 6 6 6 6
33 36 36 35 35 33 31 30 28 28 27 26 26 25 25 23 21 18 17 18 17 16 15 15 15 16 15 15 15 15 16 16 15 15 14 14 13 13 12 11 11 10 10 10 9 8 8 8 8 8 9 8 9 9 9 9 8 8 8 7 7 7 7
29 34 37 37 36 35 33 32 31 30 29 27 26 26 26 25 23 21 18 18 18 17 17 17 17 16 16 16 15 16 16 17 17 17 16 16 15 14 13 12 11 10 10 10 9 8 8 8 8 8 9 9 9 9 9 9 9 8 9 8 7 8 7
26 31 35 36 36 35 34 33 32 33 32 29 27 27 27 26 24 22 19 19 19 18 18 18 17 17 17 17 17 16 17 18 19 18 18 17 16 15 14 13 12 11 11 10 9 9 9 9 9 9 8 8 9 9 8 8 8 8 8 8 8 8 7
22 26 32 35 36 37 37 36 36 35 34 31 29 28 28 27 26 23 20 20 20 19 18 18 17 17 17 17 17 17 17 18 19 20 19 18 17 16 15 14 13 12 12 11 10 10 10 9 9 9 9 9 8 8 8 7 7 7 7 7 7 7 7
21 23 28 33 37 40 41 40 40 39 36 34 31 28 28 28 27 24 20 20 21 20 19 19 18 17 17 18 18 18 18 18 19 20 20 20 18 18 17 15 14 13 13 12 11 12 11 11 10 10 9 9 9 8 8 8 7 7 7 7 7 7 7
21 21 24 27 31 38 42 40 40 40 37 34 32 29 29 29 27 23 20 20 21 21 20 19 18 17 18 19 19 18 18 18 18 20 20 21 20 19 18 17 16 15 14 13 13 13 12 12 11 11 10 10 9 9 9 9 8 8 8 8 7 8 8
18 18 20 22 25 31 37 40 42 41 38 35 33 31 30 29 27 24 21 21 21 20 20 20 19 18 19 20 20 19 19 18 19 19 19 20 20 20 20 19 18 17 15 15 15 13 13 13 12 11 12 11 10 11 10 10 10 9 8 8 8 8 8
17 18 20 21 23 25 29 36 42 42 40 38 36 33 30 28 27 25 24 22 22 21 21 20 19 19 20 20 20 19 19 19 18 18 18 19 19 20 20 20 19 18 17 16 16 15 13 14 13 12 13 12 12 12 12 11 11 10 9 9 9 8 8
18 20 21 19 19 20 22 28 37 42 43 40 36 33 31 30 28 27 26 24 23 23 22 21 20 20 20 20 21 20 19 19 19 18 18 18 18 19 19 19 20 20 18 17 16 16 15 14 14 14 14 13 13 13 14 14 13 12 11 11 10 10 9
19 20 20 19 17 18 19 23 32 41 43 41 38 36 34 33 31 29 28 27 26 25 24 22 22 22 21 21 21 20 19 19 19 19 19 18 18 19 19 19 19 20 20 18 17 17 17 16 15 15 15 15 14 15 16 16 15 14 13 12 11 11 11
18 19 19 16 15 16 17 20 29 39 43 43 41 38 36 35 33 30 29 28 27 26 25 24 23 23 23 22 23 23 22 22 22 21 21 20 19 19 19 19 20 20 20 19 18 18 18 18 17 17 17 16 16 16 17 18 18 17 15 13 13 12 12
18 18 17 15 15 16 17 19 25 35 43 44 42 39 38 37 34 31 29 28 26 25 25 25 25 25 24 24 26 27 26 26 26 25 23 22 22 21 21 21 21 21 21 20 18 18 18 18 19 19 18 18 17 17 18 20 20 18 16 15 15 14 13
18 17 17 16 16 16 18 19 22 28 36 41 39 37 36 35 34 32 31 29 27 26 27 27 27 27 26 26 27 28 27 26 25 24 23 23 23 22 22 22 21 22 22 21 20 20 19 18 18 18 18 18 18 19 19 20 19 17 16 17 16 15 14
16 17 18 18 16 16 17 18 18 22 27 33 34 33 32 31 31 32 31 28 27 27 28 28 29 29 30 31 31 30 29 27 24 23 23 23 24 24 24 23 22 23 23 23 23 23 22 20 19 18 18 17 18 19 19 19 19 17 17 17 17 15 15
16 15 16 17 17 17 15 13 16 21 25 30 32 32 31 30 32 33 30 28 27 28 28 30 30 30 31 33 34 33 30 27 24 24 26 26 26 26 25 25 24 24 25 25 25 25 24 23 22 21 21 19 19 19 18 17 18 18 17 17 17 16 16
15 14 13 14 15 14 11 11 16 20 22 25 28 29 29 30 31 33 31 29 28 29 29 30 30 30 30 32 32 30 28 26 25 26 28 28 27 26 26 26 27 27 28 28 28 27 27 27 26 25 24 23 22 22 21 19 18 18 18 17 18 18 18
12 12 10 11 12 11 10 8 10 12 12 15 19 23 25 25 26 28 28 27 28 29 29 29 30 31 32 32 31 29 28 27 26 25 27 29 29 29 28 29 30 31 31 31 31 31 31 31 30 29 28 27 26 26 26 23 21 21 20 19 19 19 18
8 9 8 8 10 12 12 10 8 9 11 13 15 17 19 19 21 22 23 24 26 27 25 24 26 31 34 36 34 32 31 30 29 28 28 29 30 30 30 31 31 32 32 33 33 34 35 34 34 33 32 31 29 29 29 27 26 24 22 21 22 21 20
7 7 6 6 8 11 14 16 15 15 16 16 16 16 16 16 16 18 19 21 22 21 21 22 24 28 32 35 36 34 34 33 33 32 30 29 29 29 29 30 31 31 32 33 34 36 37 37 37 37 37 36 35 34 33 32 31 29 26 24 25 24 22
8 7 8 8 8 8 12 17 20 20 20 20 20 20 20 18 16 16 19 21 23 23 23 23 25 26 27 29 32 32 33 34 33 31 29 28 28 28 28 29 30 30 31 31 32 33 35 36 36 37 38 39 39 39 39 37 35 33 31 29 28 27 26
6 7 8 9 10 10 10 10 11 12 13 15 17 18 21 23 23 22 23 25 27 27 26 25 25 26 25 25 26 27 29 31 30 28 27 27 27 27 28 27 27 27 27 28 29 30 30 30 31 32 33 35 37 38 38 37 35 34 34 33 32 31 29
5 6 7 8 10 11 11 11 10 10 10 12 13 14 16 19 22 23 24 26 26 26 25 25 25 25 24 24 25 25 26 27 26 25 24 24 25 26 26 25 24 24 24 24 25 26 25 25 24 24 25 28 31 32 34 34 33 34 35 36 36 36 33
7 7 8 9 10 12 12 12 12 12 11 12 14 15 15 16 18 20 22 24 25 25 25 26 25 24 24 24 25 26 26 25 24 24 23 23 23 24 23 22 23 23 24 23 23 23 22 21 21 21 21 22 23 26 29 29 30 31 34 37 40 39 35
8 8 8 8 8 9 10 11 11 12 13 13 13 15 17 17 18 20 21 23 24 24 24 25 25 24 23 22 23 24 24 24 23 22 22 22 22 23 23 21 21 22 23 23 23 22 22 21 20 19 19 20 21 23 26 27 27 26 28 33 36 36 34
6 6 6 6 5 5 6 7 9 10 12 13 15 16 18 19 19 20 21 22 22 22 23 23 23 23 22 21 21 21 22 23 23 22 22 23 23 23 21 19 20 22 22 23 23 22 21 19 18 18 17 18 20 22 23 24 23 19 21 25 28 29 32
3 4 5 5 5 5 5 6 7 8 9 12 14 16 18 20 20 19 20 21 21 21 22 22 23 24 23 21 20 20 22 23 23 23 25 25 25 23 20 17 19 21 22 22 22 21 20 18 17 16 16 16 17 18 19 20 20 16 15 18 19 21 27
4 5 6 6 6 7 7 8 9 9 10 11 13 14 16 18 19 19 20 20 21 22 22 23 25 26 26 23 22 22 23 22 21 22 23 24 24 24 22 20 18 20 21 21 20 20 18 17 16 15 13 12 11 10 11 15 17 15 14 14 15 18 22
6 6 7 7 7 7 7 8 9 11 12 12 13 14 16 18 18 19 19 19 20 21 22 24 25 26 25 24 24 25 25 23 22 21 21 22 22 22 22 21 20 21 21 22 23 21 17 15 16 15 12 9 7 6 6 11 15 15 15 16 17 18 19
4 5 5 5 5 5 5 6 7 9 10 11 12 13 14 16 17 17 18 18 18 19 20 21 23 24 24 23 24 26 26 24 23 22 21 21 21 19 19 20 22 23 22 20 20 19 17 16 16 15 12 9 8 7 6 9 13 15 16 18 18 18 17
2 2 2 2 2 2 3 4 5 7 8 9 9 10 11 13 14 15 15 16 16 16 17 18 20 21 22 22 22 22 23 21 19 17 18 19 20 19 19 19 21 24 22 19 17 18 18 17 15 13 12 10 10 10 10 10 12 15 16 17 18 18 17
4 4 3 3 3 3 3 4 5 6 6 7 8 8 10 11 12 13 14 15 16 16 16 17 18 18 19 21 21 19 18 17 15 13 14 16 17 17 17 17 18 20 21 19 19 18 17 14 13 12 12 12 12 12 13 14 15 16 17 17 17 17 17
7 7 6 5 5 5 5 6 7 7 7 7 7 8 9 10 11 11 12 12 13 14 14 14 14 15 16 17 19 19 17 16 14 13 13 13 14 13 13 13 14 15 16 16 16 16 13 11 11 11 11 12 12 12 13 14 15 15 16 15 15 14 14
9 9 9 8 7 7 8 8 9 9 9 9 9 9 10 12 13 13 13 12 12 12 11 10 10 12 13 13 14 16 17 16 16 15 14 14 15 15 13 11 11 12 14 14 15 14 11 10 10 11 11 11 12 12 12 13 13 14 14 13 14 14 13
9 10 10 10 10 10 10 10 10 11 12 13 13 13 14 15 16 16 15 15 14 12 11 10 10 11 12 12 11 11 11 12 14 15 14 14 15 15 14 12 12 13 14 15 15 14 12 11 12 13 13 13 13 13 13 14 14 14 15 15 15 16 16
Wind_Direction
206 206 206 209 210 205 209 213 211 212 209 209 212 210 215 221 211 204 208 208 209 209 209 209 207 208 211 213 215 213 206 202 203 203 200 199 200 202 202 202 205 205 206 207 208 214 217 211 213 218 216 214 212 209 209 210 212 217 218 217 220 223 223
207 205 207 210 211 207 209 213 213 212 212 214 215 214 217 221 216 209 207 208 210 210 211 212 211 210 210 211 214 214 210 206 204 204 205 205 204 206 206 205 206 208 211 214 213 218 225 221 220 227 225 223 223 220 217 213 211 216 221 217 218 224 227
209 207 208 212 214 210 209 213 216 216 215 215 215 217 221 222 219 213 209 210 211 209 210 212 212 212 210 212 213 213 211 209 206 205 206 209 209 210 212 211 210 211 214 218 215 216 223 224 225 232 233 231 232 232 228 222 216 214 218 219 222 228 230
210 209 209 212 215 214 211 212 216 218 219 217 214 217 222 223 222 216 211 213 214 214 213 212 214 214 212 213 214 213 212 211 209 208 208 210 211 213 214 214 215 216 217 221 219 216 221 224 226 231 236 236 236 239 237 230 226 222 222 225 224 227 228
207 208 209 212 213 212 210 210 213 217 220 220 216 217 220 222 222 217 209 212 214 214 214 214 215 216 214 215 216 215 214 212 210 210 212 212 215 217 216 216 218 217 218 225 226 222 225 227 226 229 235 236 236 239 238 233 232 230 230 231 225 223 227
205 206 208 211 212 210 208 208 213 217 220 222 219 218 219 220 222 219 212 212 215 214 212 213 214 215 216 216 217 218 216 214 213 212 215 216 218 222 222 221 222 219 218 225 228 226 226 227 228 228 230 232 235 238 238 236 234 232 233 233 228 225 226
206 205 207 210 212 210 208 208 212 216 219 223 221 219 219 220 222 221 215 211 215 217 214 213 214 214 216 216 218 219 219 217 215 214 217 219 221 224 225 225 226 228 226 225 227 229 228 227 232 234 231 230 233 236 237 236 234 232 231 231 231 229 226
208 207 208 211 211 211 209 207 209 213 216 219 221 218 217 217 219 221 216 210 213 218 217 217 216 216 216 218 218 218 218 219 217 216 218 220 223 225 226 226 227 230 231 228 229 232 231 231 235 238 238 235 235 236 236 236 234 232 231 230 232 234 230
210 208 210 211 211 212 211 208 209 212 210 211 217 217 213 214 217 220 218 213 213 216 218 219 219 217 217 219 220 218 218 220 219 219 219 220 223 226 227 228 228 229 231 230 231 232 232 233 235 238 240 240 239 238 235 234 231 227 229 229 228 232 233
217 213 212 213 216 216 216 214 215 216 212 208 210 211 208 210 216 220 219 217 216 216 216 219 220 218 218 219 220 219 219 221 221 221 222 222 223 227 229 230 230 230 231 232 232 232 232 234 236 240 243 243 243 241 237 236 234 227 226 230 228 227 228
227 225 221 219 222 222 221 220 219 220 219 213 209 210 209 210 215 220 221 221 221 217 215 219 221 220 219 220 221 220 219 221 222 222 224 225 226 227 229 232 232 231 233 235 236 236 237 239 240 241 242 243 244 242 238 237 239 237 231 230 230 228 225
233 233 232 230 231 229 226 224 220 220 220 214 211 214 213 209 213 219 223 224 223 220 218 221 224 224 221 220 222 221 219 221 223 223 224 226 228 228 230 234 236 235 232 233 238 239 240 243 243 241 242 244 244 243 243 241 242 245 241 237 234 230 227
232 235 236 237 239 235 232 227 221 220 221 215 213 218 216 211 212 218 223 225 223 222 222 223 225 228 225 223 223 223 222 222 223 225 225 225 227 229 231 234 237 240 237 233 236 239 240 241 242 241 241 243 243 244 246 245 243 243 242 240 237 234 233
230 234 233 232 234 231 230 229 221 218 220 218 214 217 217 214 214 216 219 222 220 220 223 223 225 228 228 226 225 224 224 223 224 224 225 226 226 227 231 232 234 239 240 235 233 235 237 238 240 241 242 244 245 245 246 244 241 239 241 243 241 239 237
232 233 231 226 229 231 227 226 220 214 213 214 215 217 219 218 218 219 219 220 217 217 221 222 224 229 230 227 224 220 218 220 223 225 225 225 225 224 227 230 232 234 237 237 234 232 233 235 237 239 241 242 243 242 241 238 234 232 233 237 242 242 243
236 235 233 222 219 225 222 221 223 216 212 212 214 216 219 218 217 219 222 224 222 221 223 223 226 230 230 230 228 222 216 214 216 220 223 224 225 227 229 232 235 238 240 242 241 237 236 236 239 241 243 243 240 238 239 239 236 232 227 228 235 240 242
237 240 243 231 217 218 217 217 226 226 221 221 221 221 221 219 216 216 218 219 220 221 224 227 230 231 232 236 238 234 228 222 219 222 225 226 228 233 236 238 241 244 246 248 247 246 245 244 245 247 247 247 245 243 245 248 251 247 235 231 235 238 239
232 236 244 240 227 222 220 215 221 228 225 226 230 230 227 225 226 225 222 219 218 220 225 229 234 237 237 238 238 236 235 234 232 234 236 236 236 239 240 241 244 247 249 251 251 252 252 250 250 252 252 250 249 246 245 248 253 252 244 239 241 241 240
223 227 242 246 237 227 218 204 209 220 221 221 226 229 229 230 232 232 230 225 224 227 230 232 236 239 238 234 232 230 230 232 237 242 245 243 241 243 244 245 247 248 250 252 254 255 255 252 251 252 252 251 250 249 249 249 250 250 247 247 249 248 245
221 221 238 254 252 237 220 202 205 216 222 221 223 228 231 232 234 235 233 229 229 231 234 235 238 239 236 233 231 229 229 235 242 246 248 247 245 247 250 252 252 252 252 253 254 256 257 256 255 252 250 251 251 251 253 252 246 246 248 249 251 253 252
207 206 224 250 249 237 239 239 222 220 227 226 222 225 229 232 236 240 242 242 241 241 240 243 248 249 247 246 244 243 244 248 248 246 248 249 249 250 252 253 253 252 251 252 253 255 256 257 258 256 253 251 249 249 252 252 248 247 248 248 249 252 252
212 211 227 240 227 224 238 247 231 220 226 230 226 224 227 232 235 239 243 245 248 250 251 255 257 256 253 251 250 250 251 251 252 254 255 253 252 253 253 253 253 252 252 252 252 253 254 254 255 257 256 255 252 252 254 255 252 251 251 250 250 249 247
256 239 244 243 226 221 223 219 214 212 216 224 230 229 230 234 239 245 247 246 247 252 258 261 260 254 250 248 247 247 248 252 257 259 257 253 252 254 254 254 255 255 254 254 254 254 254 253 252 253 254 256 256 256 257 256 256 255 253 252 251 249 247
269 268 278 280 273 255 227 214 212 211 211 218 224 225 223 222 225 235 242 242 241 242 247 253 256 254 250 249 249 248 249 254 256 254 252 251 252 253 254 255 255 254 254 254 254 253 253 252 251 250 251 253 255 256 257 256 255 255 253 252 252 251 250
284 287 292 293 293 292 277 253 239 234 232 235 234 230 225 224 225 229 234 237 237 237 240 243 247 250 252 252 253 251 249 250 250 248 248 250 250 250 252 253 253 253 252 251 250 250 250 250 251 251 251 252 253 255 255 254 252 251 250 250 251 252 251
304 295 291 293 295 297 297 291 285 285 286 283 276 264 250 244 245 246 246 246 244 242 243 242 242 246 248 247 249 250 249 249 251 250 249 249 249 251 252 253 254 255 253 251 250 249 248 248 251 252 252 251 252 252 252 252 251 249 249 248 247 248 247
313 300 294 296 296 295 296 296 293 291 288 288 289 287 279 271 268 265 261 258 254 249 247 245 242 242 243 244 247 250 250 250 251 252 250 249 250 251 250 250 253 253 252 252 251 251 250 249 252 253 250 248 248 248 249 250 250 250 250 249 247 244 241
315 310 308 308 299 289 285 286 291 293 287 281 280 283 285 283 279 276 274 270 264 258 254 252 247 244 243 243 244 248 251 250 249 250 250 250 250 250 248 248 249 249 249 248 248 249 250 250 249 248 246 245 246 248 250 251 250 250 249 250 249 244 236
307 308 309 308 300 288 273 267 274 286 290 286 281 279 279 276 272 271 271 270 267 264 262 261 255 249 247 244 242 245 248 249 248 248 249 249 249 250 248 243 242 243 243 243 245 247 247 246 247 248 251 252 253 255 255 247 240 243 245 246 248 242 233
316 327 333 332 326 320 308 290 280 279 281 283 282 278 274 268 264 262 260 258 258 259 263 265 261 254 249 246 244 246 247 247 246 246 248 248 248 248 244 233 232 238 239 238 242 246 244 243 248 252 254 255 256 260 258 239 225 227 234 235 236 232 229
8 359 358 355 347 336 325 316 307 296 287 283 281 278 273 266 261 257 255 254 253 252 254 257 259 258 254 249 246 246 247 247 245 245 246 246 245 245 243 236 231 234 239 238 237 237 236 237 243 245 246 251 256 262 256 231 216 214 216 217 224 229 232
22 14 6 358 353 348 334 318 308 301 295 291 287 284 280 276 271 266 263 263 261 258 254 252 251 252 251 247 245 245 243 242 241 240 239 240 241 241 240 238 231 226 228 230 229 230 233 235 238 238 235 235 241 253 247 224 214 211 210 214 225 234 238
12 13 9 0 355 349 334 319 312 308 306 304 300 295 291 287 283 279 276 274 272 270 267 262 257 252 248 244 241 241 239 235 234 236 236 235 235 230 227 230 230 225 218 210 210 220 229 232 237 243 246 243 238 242 241 223 216 217 218 220 228 236 241
328 341 338 336 335 326 315 310 311 312 313 313 308 300 294 290 288 287 285 284 284 283 281 279 272 264 257 249 243 239 235 230 228 232 235 233 230 226 222 222 226 230 229 218 208 214 222 227 233 244 253 251 239 232 230 221 218 221 223 225 230 235 238
287 287 283 266 256 263 270 275 283 289 292 294 293 290 288 286 288 290 291 292 293 292 291 289 285 276 265 258 253 248 241 233 228 227 231 233 231 228 224 221 223 231 234 229 221 214 211 216 224 227 230 234 229 223 222 219 218 220 222 225 229 231 233
281 281 280 269 261 261 260 264 274 280 280 279 279 282 287 288 291 295 298 299 298 296 295 294 288 279 268 259 257 255 248 242 237 230 227 231 233 231 224 219 223 231 229 225 223 215 201 202 213 210 208 214 215 212 211 211 213 216 218 220 223 225 226
277 279 281 275 270 269 267 267 274 281 286 287 282 280 284 288 292 295 297 298 297 296 300 300 290 280 272 260 253 251 249 249 249 242 231 225 226 229 228 219 218 227 226 224 226 222 209 206 217 215 208 209 209 208 207 207 208 212 215 217 220 222 226
272 273 274 273 270 267 266 269 273 274 277 279 279 280 282 283 288 292 293 291 288 286 288 288 282 278 275 265 254 246 243 248 254 256 253 243 231 229 231 226 223 228 232 231 233 234 232 232 233 231 228 226 226 225 224 222 222 222 225 229 231 234 238
Height
3179 3181 3184 3185 3187 3190 3192 3193 3195 3197 3199 3200 3201 3203 3203 3204 3207 3210 3211 3212 3214 3216 3217 3219 3220 3222 3223 3225 3226 3227 3229 3230 3231 3233 3234 3235 3236 3237 3238 3239 3239 3240 3241 3242 3243 3244 3245 3245 3246 3247 3247 3248 3249 3249 3250 3250 3251 3252 3253 3253 3254 3255 3255
3175 3178 3181 3183 3185 3188 3189 3191 3193 3195 3197 3199 3200 3201 3202 3203 3206 3208 3210 3211 3213 3214 3216 3218 3219 3220 3222 3224 3225 3227 3228 3229 3231 3232 3233 3234 3235 3236 3237 3238 3239 3240 3241 3242 3243 3244 3244 3245 3246 3246 3247 3248 3248 3249 3249 3250 3250 3251 3252 3253 3253 3254 3254
3172 3175 3178 3180 3183 3185 3187 3189 3191 3193 3195 3197 3198 3199 3200 3202 3205 3207 3209 3210 3212 3213 3214 3216 3218 3219 3221 3222 3224 3226 3227 3229 3230 3231 3232 3233 3234 3235 3236 3238 3238 3239 3240 3241 3242 3243 3244 3245 3245 3246 3246 3247 3248 3248 3249 3249 3250 3250 3251 3252 3252 3253 3254
3170 3173 3176 3178 3181 3183 3185 3187 3189 3191 3193 3195 3197 3198 3198 3200 3203 3205 3208 3209 3211 3212 3213 3215 3216 3218 3219 3221 3223 3224 3226 3228 3229 3230 3232 3233 3234 3235 3236 3237 3238 3239 3240 3240 3241 3242 3243 3244 3245 3245 3246 3247 3247 3247 3248 3248 3249 3250 3250 3251 3252 3252 3253
3167 3171 3174 3176 3178 3181 3183 3185 3186 3188 3190 3193 3195 3196 3197 3199 3201 3204 3206 3208 3209 3210 3212 3213 3215 3216 3218 3220 3221 3223 3225 3226 3228 3229 3230 3231 3232 3234 3235 3236 3237 3238 3239 3239 3240 3241 3242 3243 3244 3245 3245 3246 3246 3247 3247 3248 3248 3249 3249 3250 3251 3251 3252
3165 3168 3171 3173 3176 3179 3181 3183 3185 3187 3189 3191 3193 3195 3195 3197 3199 3201 3204 3206 3207 3209 3210 3211 3213 3215 3216 3218 3220 3222 3223 3225 3226 3228 3229 3230 3231 3232 3234 3235 3236 3237 3238 3239 3239 3240 3241 3242 3243 3244 3244 3245 3245 3246 3247 3248 3248 3248 3249 3249 3250 3250 3251
3165 3167 3169 3172 3175 3177 3180 3182 3184 3185 3187 3189 3192 3193 3194 3195 3196 3199 3202 3204 3205 3207 3208 3210 3211 3213 3215 3217 3218 3220 3222 3223 3225 3226 3227 3229 3230 3231 3232 3234 3235 3236 3237 3238 3238 3239 3240 3241 3242 3242 3243 3244 3244 3245 3246 3247 3247 3247 3248 3248 3249 3249 3250
3165 3167 3169 3171 3174 3176 3178 3180 3181 3182 3184 3187 3190 3191 3192 3193 3194 3196 3199 3202 3204 3205 3207 3208 3209 3211 3213 3215 3217 3219 3220 3222 3223 3225 3226 3227 3229 3230 3231 3232 3233 3234 3235 3236 3237 3238 3239 3240 3241 3241 3242 3243 3243 3244 3245 3246 3246 3247 3247 3248 3248 3248 3249
3164 3165 3167 3170 3172 3173 3175 3176 3177 3178 3181 3184 3187 3189 3191 3191 3192 3195 3197 3200 3202 3203 3205 3206 3208 3210 3211 3213 3215 3217 3219 3220 3222 3223 3224 3226 3227 3229 3230 3231 3232 3233 3234 3235 3236 3237 3238 3238 3239 3240 3241 3242 3243 3243 3244 3245 3245 3246 3246 3247 3247 3248 3248
3161 3163 3166 3168 3170 3171 3173 3175 3176 3177 3181 3183 3185 3186 3188 3190 3191 3193 3195 3198 3200 3202 3203 3204 3206 3208 3210 3211 3213 3215 3217 3219 3220 3222 3223 3224 3226 3227 3228 3229 3231 3232 3232 3234 3235 3236 3236 3237 3238 3239 3240 3241 3241 3242 3243 3243 3244 3244 3245 3246 3246 3246 3247
3161 3163 3165 3167 3168 3169 3171 3173 3175 3177 3180 3181 3182 3184 3186 3188 3190 3192 3193 3195 3197 3200 3201 3202 3204 3206 3208 3209 3211 3213 3215 3217 3219 3220 3222 3223 3224 3226 3227 3228 3229 3230 3231 3232 3233 3234 3235 3236 3237 3238 3238 3239 3240 3241 3241 3241 3242 3243 3243 3244 3245 3245 3245
3161 3162 3163 3165 3166 3168 3170 3171 3173 3175 3177 3178 3180 3182 3184 3186 3188 3190 3191 3193 3195 3197 3199 3201 3202 3204 3206 3208 3210 3212 3214 3216 3218 3219 3221 3222 3223 3224 3225 3226 3227 3228 3230 3231 3231 3232 3233 3234 3235 3236 3237 3237 3238 3239 3240 3240 3241 3241 3242 3243 3243 3243 3244
3160 3160 3162 3164 3165 3167 3167 3167 3169 3171 3174 3176 3178 3181 3183 3184 3186 3187 3189 3190 3192 3195 3197 3199 3200 3202 3205 3207 3209 3211 3213 3215 3217 3218 3220 3221 3222 3223 3224 3225 3225 3226 3227 3229 3229 3230 3231 3232 3233 3234 3235 3235 3236 3237 3238 3239 3239 3240 3240 3241 3242 3242 3242
3157 3158 3160 3162 3162 3163 3164 3164 3165 3167 3170 3173 3175 3177 3179 3181 3182 3184 3186 3188 3190 3192 3195 3197 3199 3200 3203 3206 3208 3211 3213 3214 3216 3217 3218 3219 3221 3222 3223 3223 3224 3224 3225 3226 3227 3228 3229 3230 3231 3232 3233 3233 3234 3235 3236 3237 3238 3238 3239 3239 3240 3240 3241
3155 3156 3158 3160 3161 3160 3161 3162 3164 3165 3167 3169 3171 3175 3177 3179 3180 3182 3184 3185 3187 3189 3191 3195 3197 3199 3201 3204 3206 3208 3209 3211 3213 3214 3215 3217 3218 3219 3221 3221 3222 3222 3222 3224 3225 3226 3227 3228 3229 3229 3230 3231 3232 3233 3233 3234 3235 3236 3237 3238 3238 3239 3239
3155 3155 3157 3159 3158 3158 3159 3160 3161 3163 3164 3165 3167 3170 3174 3177 3178 3181 3183 3184 3185 3187 3190 3193 3195 3197 3200 3202 3204 3205 3205 3206 3208 3211 3212 3214 3215 3217 3218 3219 3220 3220 3221 3222 3223 3224 3225 3226 3226 3227 3228 3229 3230 3230 3231 3231 3232 3234 3235 3235 3236 3237 3238
3155 3156 3157 3157 3156 3156 3157 3159 3160 3162 3164 3166 3167 3170 3173 3176 3177 3178 3179 3180 3182 3185 3188 3191 3193 3195 3198 3200 3202 3205 3206 3206 3207 3210 3211 3212 3213 3214 3216 3217 3218 3219 3219 3220 3221 3222 3223 3224 3224 3225 3226 3227 3228 3228 3229 3230 3231 3233 3234 3233 3234 3235 3235
3155 3156 3157 3157 3157 3156 3156 3159 3161 3162 3164 3167 3170 3172 3175 3177 3177 3177 3177 3177 3179 3183 3186 3189 3191 3193 3195 3197 3200 3204 3206 3207 3209 3211 3211 3211 3211 3211 3213 3214 3216 3217 3217 3218 3218 3219 3220 3221 3222 3222 3223 3224 3225 3226 3227 3229 3230 3231 3232 3232 3232 3233 3233
3153 3155 3156 3157 3157 3155 3156 3160 3161 3161 3162 3164 3166 3169 3172 3174 3175 3175 3176 3179 3180 3182 3184 3187 3189 3190 3192 3194 3198 3202 3204 3206 3208 3210 3210 3210 3210 3209 3210 3212 3213 3214 3215 3215 3216 3216 3217 3218 3219 3220 3220 3221 3221 3222 3224 3226 3228 3229 3230 3230 3230 3230 3231
3152 3155 3155 3155 3156 3155 3155 3158 3160 3161 3162 3164 3166 3167 3169 3172 3173 3173 3174 3176 3177 3179 3181 3184 3186 3187 3189 3191 3194 3198 3201 3203 3205 3207 3207 3207 3207 3207 3207 3209 3210 3211 3212 3212 3213 3213 3213 3214 3215 3216 3217 3217 3218 3220 3221 3223 3225 3226 3227 3227 3227 3228 3228
3151 3154 3155 3154 3155 3156 3156 3158 3161 3163 3164 3165 3167 3167 3168 3170 3172 3172 3172 3172 3173 3174 3177 3181 3185 3186 3188 3189 3190 3193 3196 3199 3201 3203 3203 3202 3203 3203 3203 3204 3206 3207 3208 3209 3210 3210 3210 3210 3211 3212 3213 3215 3216 3217 3218 3220 3221 3223 3223 3224 3224 3225 3225
3153 3155 3157 3156 3156 3156 3157 3159 3162 3164 3163 3163 3164 3164 3165 3167 3168 3168 3169 3170 3170 3172 3175 3180 3183 3184 3185 3186 3187 3189 3191 3194 3196 3197 3198 3198 3199 3199 3199 3200 3201 3201 3203 3205 3206 3206 3207 3207 3207 3208 3209 3210 3211 3212 3214 3215 3217 3218 3219 3220 3221 3221 3222
3155 3157 3158 3158 3158 3158 3158 3158 3159 3161 3161 3161 3161 3162 3162 3163 3164 3166 3167 3168 3169 3171 3174 3177 3179 3180 3181 3183 3184 3185 3187 3189 3191 3192 3193 3194 3195 3195 3195 3196 3196 3197 3198 3199 3200 3201 3202 3202 3204 3204 3205 3206 3206 3207 3209 3210 3212 3213 3215 3216 3217 3218 3218
3155 3157 3158 3158 3159 3159 3159 3159 3158 3157 3158 3158 3158 3159 3160 3161 3163 3164 3165 3165 3167 3169 3172 3174 3175 3176 3178 3179 3179 3180 3182 3183 3185 3187 3189 3190 3190 3191 3191 3192 3192 3193 3193 3194 3195 3196 3196 3197 3198 3200 3201 3202 3202 3203 3204 3206 3207 3209 3210 3211 3213 3214 3215
3154 3156 3158 3158 3158 3158 3159 3159 3158 3158 3158 3158 3158 3158 3159 3160 3161 3162 3162 3163 3164 3166 3169 3172 3173 3174 3175 3176 3176 3176 3177 3178 3179 3181 3183 3185 3186 3186 3187 3188 3188 3189 3189 3190 3190 3191 3192 3193 3194 3195 3196 3197 3197 3199 3200 3201 3203 3204 3206 3207 3208 3209 3210
3153 3155 3156 3157 3157 3156 3157 3157 3157 3158 3159 3159 3158 3158 3159 3160 3161 3162 3163 3163 3164 3166 3168 3170 3172 3172 3173 3173 3174 3174 3175 3175 3175 3177 3179 3181 3182 3183 3184 3185 3186 3186 3186 3186 3187 3187 3188 3189 3190 3191 3192 3192 3193 3195 3196 3196 3197 3198 3200 3201 3202 3204 3206
3152 3153 3154 3155 3155 3155 3155 3154 3155 3156 3157 3158 3158 3158 3158 3159 3160 3161 3161 3162 3163 3164 3166 3168 3169 3170 3171 3172 3172 3172 3172 3173 3174 3175 3176 3178 3178 3179 3181 3182 3182 3182 3183 3184 3184 3184 3185 3186 3186 3187 3189 3189 3190 3191 3191 3192 3192 3193 3194 3195 3196 3198 3201
3151 3152 3152 3153 3154 3154 3154 3153 3152 3153 3154 3156 3157 3157 3157 3157 3158 3159 3159 3160 3161 3162 3163 3165 3166 3167 3168 3169 3169 3170 3170 3171 3172 3173 3173 3174 3174 3175 3176 3178 3178 3179 3180 3181 3181 3181 3182 3183 3184 3185 3186 3186 3187 3187 3187 3187 3188 3188 3189 3190 3191 3193 3196
3150 3151 3151 3151 3152 3153 3153 3153 3153 3152 3152 3153 3154 3155 3155 3155 3156 3157 3158 3159 3159 3160 3161 3162 3163 3165 3165 3166 3167 3167 3168 3169 3170 3170 3170 3170 3171 3171 3173 3174 3175 3176 3177 3178 3178 3178 3179 3180 3181 3182 3183 3183 3183 3183 3183 3183 3184 3185 3186 3186 3187 3188 3192
3150 3150 3150 3150 3151 3151 3152 3153 3153 3153 3152 3152 3153 3153 3154 3154 3155 3156 3157 3158 3158 3159 3159 3160 3161 3162 3163 3164 3165 3165 3166 3167 3167 3168 3168 3168 3168 3169 3170 3171 3172 3173 3173 3174 3175 3175 3176 3177 3178 3179 3180 3180 3180 3180 3179 3180 3181 3183 3183 3184 3184 3186 3188
3149 3149 3149 3149 3149 3150 3151 3152 3152 3152 3152 3152 3152 3152 3153 3154 3155 3156 3157 3157 3158 3158 3158 3159 3159 3160 3161 3163 3163 3163 3164 3164 3165 3165 3165 3166 3167 3167 3167 3168 3169 3170 3171 3171 3172 3172 3173 3174 3175 3176 3177 3178 3178 3177 3177 3177 3180 3182 3182 3182 3184 3185 3187
3148 3149 3149 3148 3148 3149 3150 3150 3151 3151 3151 3151 3152 3152 3152 3153 3154 3155 3156 3157 3157 3157 3158 3158 3158 3158 3159 3160 3160 3161 3161 3162 3162 3162 3163 3163 3164 3166 3166 3167 3167 3168 3168 3168 3169 3170 3171 3171 3172 3174 3175 3176 3176 3176 3176 3176 3178 3180 3180 3181 3182 3184 3185
3148 3148 3148 3148 3148 3149 3149 3150 3150 3150 3149 3150 3150 3151 3152 3153 3154 3155 3156 3156 3157 3157 3157 3157 3157 3157 3157 3158 3158 3158 3158 3159 3160 3160 3161 3161 3162 3163 3164 3165 3166 3166 3165 3165 3166 3168 3170 3170 3170 3171 3173 3174 3175 3175 3175 3176 3177 3178 3179 3180 3181 3182 3183
3147 3148 3148 3148 3148 3148 3149 3149 3149 3149 3149 3149 3149 3150 3151 3152 3154 3155 3155 3156 3156 3156 3156 3156 3156 3156 3157 3157 3156 3156 3156 3156 3157 3159 3159 3160 3160 3161 3161 3162 3164 3164 3164 3164 3164 3166 3168 3168 3168 3170 3171 3172 3173 3173 3174 3175 3176 3177 3178 3179 3180 3180 3181
3147 3147 3148 3148 3148 3148 3148 3148 3148 3148 3149 3149 3149 3150 3151 3151 3152 3153 3154 3154 3155 3155 3155 3155 3155 3155 3155 3155 3155 3155 3155 3154 3155 3156 3158 3159 3159 3159 3159 3160 3162 3163 3164 3164 3163 3163 3164 3165 3167 3168 3169 3170 3171 3171 3172 3172 3173 3174 3175 3176 3177 3178 3179
3146 3147 3147 3148 3148 3148 3148 3148 3148 3149 3149 3150 3150 3150 3151 3151 3151 3152 3152 3153 3153 3154 3154 3154 3154 3154 3154 3154 3154 3154 3154 3153 3153 3154 3156 3157 3157 3157 3157 3158 3159 3160 3162 3163 3163 3161 3161 3163 3165 3166 3167 3168 3169 3169 3170 3171 3172 3172 3173 3174 3175 3176 3176
3146 3147 3147 3147 3148 3148 3148 3148 3148 3149 3150 3150 3150 3151 3151 3151 3151 3151 3151 3151 3152 3152 3153 3153 3153 3153 3153 3153 3153 3152 3152 3152 3153 3153 3154 3155 3156 3156 3156 3157 3157 3158 3160 3161 3161 3161 3160 3161 3163 3165 3165 3166 3167 3168 3169 3169 3170 3171 3171 3172 3173 3173 3174
3145 3146 3146 3146 3147 3147 3147 3147 3148 3148 3149 3149 3150 3150 3150 3150 3150 3150 3150 3150 3150 3150 3151 3151 3151 3152 3152 3152 3152 3151 3151 3151 3152 3152 3152 3153 3154 3154 3154 3155 3156 3157 3157 3158 3158 3159 3159 3159 3161 3163 3163 3164 3165 3166 3167 3168 3168 3169 3169 3170 3170 3171 3172